{"data":{"norad_id":69415,"intl_designator":"2026-125Q","name":"QIANFAN-197","alt_names":[],"object_type":"PAYLOAD","status":"ACTIVE","operator":null,"country":"PRC","launch_date":"2026-06-05","launch_site_code":"WSC","launch_vehicle":null,"mission":null,"orbit_class":"UNKNOWN","rcs_meters":null,"size_class":null,"mass_kg":null,"dimensions":null,"purposes":[],"wikipedia_slug":null,"has_3d_model":false,"image_url":null,"decayed_at":null,"tle_current":{"epoch":"2026-09-20T03:42:33.227136Z","epoch_age_seconds":64583,"freshness":"FRESH","line1":"1 69415U 26125Q   26263.15455124  .00000028  00000+0  24662-4 0  9990","line2":"2 69415  88.9879 270.3051 0002030 100.2792 259.8588 13.51023723 14782","mean_motion":13.51023723,"eccentricity":0.000203,"inclination_deg":88.9879,"raan_deg":270.3051,"arg_perigee_deg":100.2792,"mean_anomaly_deg":259.8588,"bstar":2.4662e-5,"rev_number":1478,"period_min":106.58584120214,"perigee_km":1066.9827461496,"apogee_km":1070.006078503,"semimajor_km":7446.6314123263,"source":"CELESTRAK","updated_at":"2026-09-20T09:00:24.868587Z"}}}